TimeCDT,TemperatureF,Dew PointF,Humidity,Sea Level PressureIn,VisibilityMPH,Wind Direction,Wind SpeedMPH,Gust SpeedMPH,PrecipitationIn,Events,Conditions,WindDirDegrees,DateUTC
12:53 AM,81.0,69.1,67,29.86,10.0,South,16.1,-,N/A,,Clear,170,2013-06-12 05:53:00
1:53 AM,81.0,69.1,67,29.86,10.0,South,16.1,-,N/A,,Partly Cloudy,180,2013-06-12 06:53:00
2:53 AM,79.0,69.1,72,29.85,10.0,South,16.1,-,N/A,,Clear,170,2013-06-12 07:53:00
3:53 AM,78.1,70.0,76,29.84,10.0,South,16.1,-,N/A,,Clear,170,2013-06-12 08:53:00
4:53 AM,78.1,70.0,76,29.87,10.0,South,13.8,-,N/A,,Clear,180,2013-06-12 09:53:00
5:53 AM,77.0,70.0,79,29.88,10.0,South,13.8,-,N/A,,Partly Cloudy,180,2013-06-12 10:53:00
6:53 AM,78.1,70.0,76,29.90,10.0,South,12.7,-,N/A,,Partly Cloudy,190,2013-06-12 11:53:00
7:53 AM,80.1,69.1,69,29.91,10.0,SSW,16.1,24.2,N/A,,Partly Cloudy,200,2013-06-12 12:53:00
8:53 AM,82.9,68.0,60,29.91,8.0,SW,15.0,27.6,N/A,,Partly Cloudy,220,2013-06-12 13:53:00
9:53 AM,84.9,66.9,55,29.91,10.0,SW,16.1,24.2,N/A,,Partly Cloudy,220,2013-06-12 14:53:00
10:53 AM,88.0,66.9,49,29.88,10.0,SSW,17.3,26.5,N/A,,Mostly Cloudy,200,2013-06-12 15:53:00
11:53 AM,90.0,66.9,46,29.88,10.0,SSW,23.0,29.9,N/A,,Mostly Cloudy,200,2013-06-12 16:53:00
12:53 PM,93.0,66.9,42,29.86,10.0,South,24.2,34.5,N/A,,Scattered Clouds,190,2013-06-12 17:53:00
1:53 PM,93.9,66.9,41,29.86,10.0,South,24.2,31.1,N/A,,Partly Cloudy,190,2013-06-12 18:53:00
2:53 PM,95.0,66.9,40,29.85,10.0,SSW,21.9,31.1,N/A,,Partly Cloudy,200,2013-06-12 19:53:00
3:53 PM,95.0,66.0,38,29.85,10.0,SSW,18.4,28.8,N/A,,Partly Cloudy,210,2013-06-12 20:53:00
4:53 PM,95.0,66.9,40,29.85,10.0,SW,16.1,24.2,N/A,,Partly Cloudy,220,2013-06-12 21:53:00
5:53 PM,93.9,68.0,43,29.84,10.0,SSW,13.8,25.3,N/A,,Partly Cloudy,210,2013-06-12 22:53:00
6:53 PM,93.0,69.1,45,29.84,10.0,SW,13.8,23.0,N/A,,Partly Cloudy,220,2013-06-12 23:53:00
7:53 PM,91.0,69.1,48,29.85,10.0,SSW,12.7,23.0,N/A,,Partly Cloudy,210,2013-06-13 00:53:00
8:53 PM,88.0,70.0,55,29.86,10.0,South,12.7,-,N/A,,Scattered Clouds,190,2013-06-13 01:53:00
9:53 PM,86.0,71.1,61,29.86,10.0,South,11.5,-,N/A,,Scattered Clouds,190,2013-06-13 02:53:00
10:53 PM,84.9,72.0,65,29.88,10.0,South,12.7,-,N/A,,Partly Cloudy,190,2013-06-13 03:53:00
11:53 PM,82.9,71.1,67,29.88,10.0,SSW,11.5,19.6,N/A,,Partly Cloudy,200,2013-06-13 04:53:00